Location: Antioch Church
(34.9543°N, 88.5145°W)
Time: 00:03:43
(UTC+00:00)

Cosmos 1602 - Pass Details

Date: 11 December 2019
Orbit: 515 x 534 km, 82.5° (Epoch: 19 January)

Event Time Altitude Azimuth Distance (km) Brightness Sun altitude
Rises 11:00:21 0° 181° (S) 2,617 7.4 -22.1°
Reaches altitude 10° 11:02:29 10° 179° (S) 1,734 6.5 -21.7°
Maximum altitude 11:06:15 71° 95° (E) 547 3.9 -21.0°
Drops below altitude 10° 11:10:04 10° 11° (NNE) 1,748 6.3 -20.2°
Sets 11:12:13 0° 10° (N) 2,640 7.3 -19.8°
